Regional Weather Roundup
Issued by NWS

Home | Current Version | Previous Version | Text Only | Print | Product List | Glossary On
Versions: 1 2 3 4 5 6 7 8 9 10 11 12 13 14 15 16 17 18 19 20 21 22 23 24 25 26 27 28 29 30 31 32 33 34 35 36 37 38 39 40 41 42 43 44 45 46 47 48 49 50
000
ASUS43 KBIS 090110
RWRND

NORTH DAKOTA REGIONAL WEATHER ROUNDUP
NATIONAL WEATHER SERVICE BISMARCK ND
700 PM CST MON FEB 08 2016

NOTE: "FAIR" INDICATES FEW OR NO CLOUDS BELOW 12,000 FEET WITH NO
SIGNIFICANT WEATHER AND/OR OBSTRUCTIONS TO VISIBILITY.


NDZ001>003-009>011-017-090200-
NORTHWEST NORTH DAKOTA

CITY           SKY/WX    TMP DP  RH WIND       PRES   REMARKS
WILLISTON      CLOUDY    33  21  61 N5        30.29S
MINOT          CLEAR     23  13  65 NW10      30.27R WCI  12
MINOT AFB      CLEAR     22  15  76 CALM      30.27R
$$

NDZ018>021-031>035-040>046-090200-
SOUTHWEST NORTH DAKOTA

CITY           SKY/WX    TMP DP  RH WIND       PRES   REMARKS
BISMARCK       MOCLDY    32  17  54 N13G21    30.25F
DICKINSON      CLOUDY    30  15  53 NW10      30.24S
GARRISON         N/A     27  17  66 NW13      30.26R WCI  16
HETTINGER ARPT CLOUDY    33  11  39 N10       30.25F
$$

NDZ004>008-012>016-024-026-027-054-090200-
NORTHEAST NORTH DAKOTA

CITY           SKY/WX    TMP DP  RH WIND       PRES   REMARKS
GRAND FORKS    CLOUDY    10   2  69 N20       30.26R WCI  -9
GRND FRKS AFB  CLOUDY    10   3  72 N22       30.25S WCI  -9
DEVILS LAKE    CLEAR     12   8  84 N12       30.24S WCI  -2
$$

NDZ022-023-025-028>030-036>039-047>053-090200-
SOUTHEAST NORTH DAKOTA

CITY           SKY/WX    TMP DP  RH WIND       PRES   REMARKS
FARGO          CLOUDY    11   4  73 N28       30.22F BLWGSNOWWCI -10
JAMESTOWN      CLEAR     18  11  74 N16       30.20R WCI   3
$$




USA.gov is the U.S. government's official web portal to all federal, state and local government web resources and services.